KF7SHY-14 Weather Reports


Display with metric or nautical units.
time (UTC)temp
F
wind
direction
speed
MPH
gust
MPH
rain 1hr
in
rain 24hr
in
rain mn
in
humidity
%
barometer
mb
20260503183344 0 260 1.0 4.0 0.00 0.00 0.00 1014.4
20260503181409 0 200 1.0 6.0 0.00 0.00 0.00 1014.4
20260503180345 0 250 1.0 3.0 0.00 0.00 0.00 1014.6
20260503175344 0 55 0.0 3.0 0.00 0.00 0.00 1014.6
20260503174344 0 186 1.0 4.0 0.00 0.00 0.00 1014.7
20260503172344 0 62 1.0 3.0 0.00 0.00 0.00 1014.8
20260503171409 0 141 1.0 5.0 0.00 0.00 0.00 1014.7
20260503170344 0 156 1.0 7.0 0.00 0.00 0.00 1014.8
20260503150342 0 122 1.0 5.0 0.00 0.00 0.00 1015.1
20260503131406 0 61 2.0 6.0 0.00 0.00 0.00 1015.0
20260503130341 0 45 3.0 10.0 0.00 0.00 0.00 1015.0
20260503110241 0 82 1.0 6.0 0.00 0.00 0.00 1015.3
20260503100241 0 36 2.0 6.0 0.00 0.00 0.00 1015.6
20260503090241 0 49 2.0 5.0 0.00 0.00 0.00 1015.6
20260503081305 0 64 0.0 2.0 0.00 0.00 0.00 1015.7
20260503072240 0 13 1.0 5.0 0.00 0.00 0.00 1015.7
20260503071305 0 90 1.0 3.0 0.00 0.00 0.00 1015.7
20260503070239 0 49 2.0 6.0 0.00 0.00 0.00 1015.8
20260503060239 0 112 1.0 1.0 0.00 0.00 0.00 1015.8
20260503054239 0 109 0.0 2.0 0.00 0.00 0.00 1015.7
20260503053239 0 356 2.0 5.0 0.00 0.00 0.00 1015.6
20260503052239 0 3 4.0 7.0 0.00 0.00 0.00 1015.6
20260503051312 0 359 2.0 4.0 0.00 0.00 0.00 1015.4
20260503045241 0 353 6.0 10.0 0.00 0.00 0.00 1015.3
20260503044239 0 356 6.0 9.0 0.00 0.00 0.00 1015.1
20260503043241 0 352 4.0 8.0 0.00 0.00 0.00 1015.1
20260503042331 0 289 5.0 8.0 0.00 0.00 0.00 1015.1
20260503041358 0 282 4.0 9.0 0.00 0.00 0.00 1014.9
20260503035339 0 301 5.0 9.0 0.00 0.00 0.00 1014.6
20260503033341 0 308 5.0 11.0 0.00 0.00 0.00 1014.2
20260503032341 0 284 4.0 9.0 0.00 0.00 0.00 1014.1
20260503031407 0 273 5.0 9.0 0.00 0.00 0.00 1014.1
20260503030343 0 257 4.0 8.0 0.00 0.00 0.00 1013.9
20260503024341 0 281 3.0 7.0 0.00 0.00 0.00 1013.8
20260503023344 0 290 2.0 9.0 0.00 0.00 0.00 1013.8
20260503022406 0 291 4.0 9.0 0.00 0.00 0.00 1013.7
20260503020341 0 279 5.0 11.0 0.00 0.00 0.00 1013.7
20260503015341 0 298 7.0 12.0 0.00 0.00 0.00 1013.7
20260503014343 0 301 6.0 10.0 0.00 0.00 0.00 1013.8
20260503013345 0 294 7.0 11.0 0.00 0.00 0.00 1013.7
20260503012343 0 302 6.0 10.0 0.00 0.00 0.00 1013.7
20260503011410 0 300 6.0 10.0 0.00 0.00 0.00 1013.7
20260503010342 0 303 6.0 10.0 0.00 0.00 0.00 1013.7
20260503005345 0 291 6.0 11.0 0.00 0.00 0.00 1013.7
20260503004342 0 295 6.0 9.0 0.00 0.00 0.00 1013.7
20260503003345 0 290 6.0 9.0 0.00 0.00 0.00 1013.7
20260503002342 0 292 6.0 11.0 0.00 0.00 0.00 1013.7
20260503000342 0 279 7.0 13.0 0.00 0.00 0.00 1013.8
20260502233343 0 269 8.0 13.0 0.00 0.00 0.00 1013.7
20260502231408 0 262 7.0 15.0 0.00 0.00 0.00 1013.9
20260502225343 0 258 7.0 11.0 0.00 0.00 0.00 1014.0
20260502224343 0 259 7.0 11.0 0.00 0.00 0.00 1014.1
20260502223342 0 245 8.0 12.0 0.00 0.00 0.00 1014.2
20260502222342 0 250 7.0 12.0 0.00 0.00 0.00 1014.4
20260502221406 0 239 7.0 9.0 0.00 0.00 0.00 1014.4
20260502220342 0 232 6.0 9.0 0.00 0.00 0.00 1014.5
20260502215342 0 238 6.0 9.0 0.00 0.00 0.00 1014.6
20260502213340 0 261 3.0 6.0 0.00 0.00 0.00 1014.7
20260502212341 0 251 4.0 7.0 0.00 0.00 0.00 1014.8
20260502211405 0 302 4.0 6.0 0.00 0.00 0.00 1014.9
20260502210520 0 288 4.0 7.0 0.00 0.00 0.00 1015.0
20260502205340 0 291 4.0 8.0 0.00 0.00 0.00 1015.1
20260502204342 0 294 3.0 7.0 0.00 0.00 0.00 1015.2
20260502203341 0 305 3.0 6.0 0.00 0.00 0.00 1015.3
20260502202342 0 338 3.0 7.0 0.00 0.00 0.00 1015.4
20260502201408 0 339 3.0 6.0 0.00 0.00 0.00 1015.4
20260502200341 0 337 2.0 5.0 0.00 0.00 0.00 1015.4
20260502195341 0 285 2.0 5.0 0.00 0.00 0.00 1015.5
20260502194342 0 312 3.0 6.0 0.00 0.00 0.00 1015.6
20260502193341 0 313 3.0 7.0 0.00 0.00 0.00 1015.6
20260502192340 0 321 2.0 4.0 0.00 0.00 0.00 1015.7
20260502191405 0 338 1.0 4.0 0.00 0.00 0.00 1015.6
20260502190340 0 284 1.0 3.0 0.00 0.00 0.00 1015.8
20260502185340 0 297 1.0 3.0 0.00 0.00 0.00 1015.8
20260502184340 0 280 1.0 2.0 0.00 0.00 0.00 1015.8